CAPE
1014 941 894 1017 881 803 978 1181 1312 1421 1250 1163 1131 875 382 213 0 0 19 3 0 0
1070 1059 1060 1085 1032 900 874 1230 1372 1308 1421 1347 1293 930 605 247 8 5 0 3 1 0
1114 1135 1117 1056 1072 946 873 1059 1260 1293 1459 1351 1230 877 683 233 3 0 2 0 0 0
1162 1140 1119 1131 1067 1026 1076 1148 1105 1269 1527 1141 1157 1101 822 294 136 0 0 6 0 0
994 1149 1259 1165 1174 1098 1239 1373 1451 1376 1274 1123 1140 1330 922 518 486 133 0 3 18 1
1217 1150 1279 1353 1261 1208 1320 1420 1310 1320 1237 1158 1285 1304 1008 750 687 565 153 11 0 21
1462 1506 1295 1308 1370 1380 1452 1554 1527 1327 1357 1443 1389 1240 1059 986 908 921 703 339 139 0
1620 1694 1680 1554 1425 1354 1392 1437 1448 1502 1459 1607 1636 1430 1325 1247 1221 1037 932 779 446 96
1868 1947 1951 1907 1765 1636 1525 1567 1565 1488 1385 1351 1430 1628 1655 1530 1365 1031 943 800 559 252
1946 2133 2178 2119 2047 1929 1804 1695 1646 1602 1472 1443 1562 1680 1564 1539 1353 930 1005 915 1016 688
2230 2194 2297 2358 2298 2174 2042 1960 1865 1792 1681 1584 1655 1754 1729 1922 395 271 742 1095 1155 361
2442 2403 2468 2483 2527 2454 2302 2207 2161 1990 2032 2170 2231 2390 2566 2390 288 1257 1528 1097 755 469
2607 2551 2534 2577 2522 2567 2574 2371 2309 2431 2385 2433 2473 2510 2625 967 959 2094 1527 824 418 355
2645 2734 2635 2555 2542 2642 2673 2641 2479 2605 2708 2837 2874 2855 2386 836 2063 1605 868 358 261 201
CIN
-142 -125 -92 -72 -94 -106 -122 -102 -55 -55 -49 -49 -62 -79 -116 -140 -0 -0 -252 -206 -0 -0
-216 -156 -133 -99 -107 -111 -155 -91 -54 -84 -56 -53 -62 -87 -102 -132 -313 -321 -0 -224 -174 -0
-258 -190 -154 -123 -131 -146 -186 -140 -110 -102 -66 -66 -73 -97 -106 -153 -290 -0 -194 -0 -0 -0
-296 -239 -193 -147 -161 -198 -164 -131 -151 -118 -69 -106 -82 -69 -97 -125 -145 -0 -0 -274 -0 -0
-364 -298 -231 -195 -193 -235 -189 -149 -109 -90 -97 -85 -90 -63 -97 -90 -88 -121 -0 -290 -266 -140
-385 -365 -304 -234 -225 -251 -204 -167 -160 -116 -101 -111 -96 -87 -119 -90 -84 -71 -50 -18 -0 -223
-392 -374 -376 -299 -253 -257 -240 -211 -176 -165 -131 -99 -90 -97 -67 -49 -45 -38 -28 -33 -44 -0
-393 -350 -328 -303 -281 -268 -284 -264 -243 -176 -161 -121 -78 -62 -61 -45 -28 -32 -31 -26 -19 -55
-403 -349 -341 -296 -284 -252 -292 -268 -254 -221 -199 -185 -135 -80 -29 -13 -12 -22 -35 -23 -44 -45
-409 -358 -332 -289 -258 -268 -270 -279 -295 -235 -222 -202 -142 -96 -65 -38 -57 -135 -29 -1 -0 -6
-420 -404 -345 -254 -245 -245 -259 -262 -300 -258 -210 -188 -153 -112 -65 -13 -352 -157 -51 -0 -0 -26
-428 -404 -340 -320 -267 -211 -205 -236 -233 -226 -169 -142 -117 -47 -9 -3 -125 -42 -0 -0 -16 -30
-463 -407 -366 -352 -293 -238 -193 -214 -194 -139 -139 -107 -88 -44 -10 -221 -91 -0 -0 -25 -86 -42
-453 -425 -411 -355 -286 -258 -217 -165 -150 -113 -95 -80 -51 -21 -14 -149 -26 -20 -69 -120 -104 -78
Wind_Speed
12 9 11 14 15 15 16 13 14 7 9 11 14 15 15 16 nan nan nan nan nan nan
13 13 12 14 14 15 16 13 11 10 8 11 17 19 17 15 nan nan nan nan nan nan
14 14 15 16 15 17 16 14 13 11 8 13 16 17 21 20 nan nan nan nan nan nan
15 14 13 12 17 16 15 14 13 9 10 13 16 17 18 21 22 nan nan nan nan nan
19 17 14 10 16 16 14 15 14 10 9 14 15 18 22 23 20 24 nan nan nan nan
19 19 18 12 15 13 13 14 12 12 14 13 14 18 21 24 24 26 27 nan nan nan
20 17 21 16 16 12 13 14 14 15 15 15 18 17 20 23 23 24 26 28 33 nan
18 15 16 16 17 14 15 14 16 20 19 19 24 20 21 22 23 25 25 25 31 nan
24 25 22 18 19 22 17 18 21 21 23 24 21 25 29 29 27 19 21 28 30 33
25 24 21 21 21 22 22 24 23 25 27 25 26 28 33 45 48 34 28 30 33 34
26 26 23 24 22 22 28 29 30 30 31 29 29 38 42 47 34 28 29 31 37 41
29 23 24 23 24 25 28 31 33 37 33 33 35 44 43 39 29 29 31 33 39 44
29 27 29 29 29 31 32 30 37 40 37 39 42 50 51 45 32 34 34 35 40 47
29 29 31 34 37 38 37 39 41 44 42 42 46 53 57 42 39 36 40 42 43 45
Wind_Direction
312 282 281 283 276 279 289 308 306 293 314 310 315 312 322 328 nan nan nan nan nan nan
297 304 289 274 276 271 290 296 271 299 305 303 306 313 326 340 nan nan nan nan nan nan
295 291 282 273 275 275 280 288 263 290 298 298 302 307 315 323 nan nan nan nan nan nan
314 309 289 270 262 270 281 274 265 280 293 298 307 311 327 332 328 nan nan nan nan nan
325 315 307 270 258 266 280 254 264 265 282 298 318 326 330 334 345 354 nan nan nan nan
327 316 313 284 265 262 263 256 255 264 280 285 307 325 331 331 343 350 352 nan nan nan
329 321 314 302 276 261 243 246 251 261 268 286 307 318 324 326 335 338 346 337 337 nan
329 312 303 305 285 250 250 248 256 265 271 289 301 304 317 318 327 332 332 343 334 nan
319 320 304 303 287 278 252 251 260 277 282 284 281 305 317 312 307 318 320 337 336 342
304 310 304 293 283 285 280 267 265 268 280 283 286 312 315 300 310 325 341 347 346 352
299 305 295 288 287 277 271 277 269 267 281 281 292 297 301 317 330 331 331 336 353 349
301 294 298 302 298 289 279 269 268 273 275 282 289 300 306 301 321 331 329 347 342 344
295 291 295 302 296 290 288 280 266 268 270 280 287 298 301 303 311 322 324 329 336 342
276 288 286 283 280 282 280 281 280 274 271 279 282 285 299 316 310 316 320 327 331 330